Location: Derby
(52.9213°N, 1.4761°W)
Time: 02:35:52
(UTC+01:00)

Vanguard 2 Rocket - Pass Details

Date: 22 May 2025
Orbit: 554 x 3293 km, 32.9° (Epoch: 12 June)

Event Time Altitude Azimuth Distance (km) Brightness Sun altitude
Rises 01:49:24 0° 249° (WSW) 6,937 11.1 -16.0°
Reaches altitude 10° 01:55:18 10° 241° (WSW) 5,582 10.5 -15.8°
Maximum altitude 02:07:25 28° 191° (S) 3,317 9.1 -15.3°
Drops below altitude 10° 02:15:36 10° 137° (SE) 3,696 9.7 -15.0°
Sets 02:18:36 0° 125° (SE) 4,326 10.2 -14.8°
